This is the latest recevied weather packets stored in our database for station/object 4S6DRJ-13. If no packets are shown the sender has not sent any weather packets the latest 10 day(s).
| Time | Temp. | Humidity | Pressure | Rain* | Wind** | Luminosity | Snow |
|---|---|---|---|---|---|---|---|
| 1787691210 | 26.67° C | 91% | 1010.1 hPa | 0.25 mm | 1.34 m/s, 251° | 0 W/m² | - |
| 1787691150 | 26.67° C | 91% | 1010.3 hPa | 0.25 mm | 2.68 m/s, 172° | 0 W/m² | - |
| 1787691089 | 26.67° C | 91% | 1010.2 hPa | 0.25 mm | 0.89 m/s, 224° | 0 W/m² | - |
| 1787691028 | 26.67° C | 91% | 1010.2 hPa | 0.25 mm | 1.79 m/s, 251° | 0 W/m² | - |
| 1787690966 | 26.67° C | 91% | 1010.4 hPa | 0.25 mm | 0.89 m/s, 206° | 0 W/m² | - |
| 1787690906 | 26.67° C | 91% | 1010.4 hPa | 0.25 mm | 1.79 m/s, 224° | 0 W/m² | - |
| 1787690844 | 26.67° C | 91% | 1010.3 hPa | 0.25 mm | 1.79 m/s, 242° | 0 W/m² | - |
| 1787690783 | 26.67° C | 91% | 1010.3 hPa | 0.25 mm | 1.34 m/s, 169° | 0 W/m² | - |
| 1787690723 | 26.67° C | 91% | 1010.2 hPa | 0.25 mm | 0.89 m/s, 254° | 0 W/m² | - |
| 1787690661 | 26.67° C | 91% | 1010.4 hPa | 0.25 mm | 0.89 m/s, 203° | 0 W/m² | - |
| 1787690600 | 26.67° C | 91% | 1010.2 hPa | 0.25 mm | 0.89 m/s, 196° | 0 W/m² | - |
| 1787690539 | 26.67° C | 91% | 1010.2 hPa | 0.25 mm | 1.34 m/s, 198° | 0 W/m² | - |
| 1787690478 | 26.67° C | 92% | 1010.4 hPa | 0.25 mm | 1.79 m/s, 237° | 0 W/m² | - |
| 1787690418 | 26.67° C | 91% | 1010.4 hPa | 0.25 mm | 3.13 m/s, 176° | 0 W/m² | - |
| 1787690357 | 26.67° C | 92% | 1010.4 hPa | 0.25 mm | 0.89 m/s, 67° | 0 W/m² | - |
| 1787690295 | 26.67° C | 92% | 1010.4 hPa | 0.25 mm | 0.89 m/s, 226° | 0 W/m² | - |
| 1787690235 | 26.67° C | 92% | 1010.4 hPa | 0.25 mm | 1.34 m/s, 285° | 0 W/m² | - |
| 1787690173 | 26.67° C | 92% | 1010.5 hPa | 0.25 mm | 2.24 m/s, 213° | 0 W/m² | - |
| 1787690112 | 26.67° C | 92% | 1010.5 hPa | 0.25 mm | 1.79 m/s, 207° | 0 W/m² | - |
| 1787690052 | 26.67° C | 92% | 1010.3 hPa | 0.51 mm | 4.47 m/s, 98° | 0 W/m² | - |
| 1787689990 | 26.67° C | 92% | 1010.3 hPa | 0.51 mm | 1.34 m/s, 69° | 0 W/m² | - |
| 1787689929 | 26.67° C | 92% | 1010.4 hPa | 0.51 mm | 1.34 m/s, 281° | 0 W/m² | - |
| 1787689868 | 26.67° C | 92% | 1010.3 hPa | 0.51 mm | 0.89 m/s, 199° | 0 W/m² | - |
| 1787689807 | 26.67° C | 92% | 1010.4 hPa | 0.51 mm | 2.24 m/s, 155° | 0 W/m² | - |
| 1787689746 | 26.67° C | 92% | 1010.3 hPa | 1.52 mm | 2.68 m/s, 222° | 0 W/m² | - |
* Rain latest hour (hover to see other rain measurements)
** Current wind speed in m/s (hover to see current wind gust speed)